• In Germany
  • List of Countries
  • For 7 days
  • Water Temperature
  • Satellite Maps
  • Weather Map
  • Weather Widgets
  • user-avatar
    Login

    Hourly Weather Wiktoria

    Today, 25 September, Monday

    Time Temperature Precipitation Wind Pressure Humidity
    00:00 +8°C° 0 mm 4 mps 742 mmHg 80%
    01:00 +8°C° 0 mm 4 mps 742 mmHg 84%
    02:00 +8°C° 0 mm 3 mps 742 mmHg 88%
    03:00 +8°C° 0 mm 3 mps 743 mmHg 92%
    04:00 +7°C° 0 mm 2 mps 743 mmHg 95%
    05:00 +7°C° 0 mm 2 mps 743 mmHg 95%
    06:00 +7°C° 0 mm 2 mps 744 mmHg 96%
    07:00 +7°C° 0 mm 2 mps 744 mmHg 96%
    08:00 +9°C° 0.1 mm 3 mps 744 mmHg 89%
    09:00 +11°C° 0.1 mm 3 mps 745 mmHg 83%
    10:00 +13°C° 0.1 mm 4 mps 745 mmHg 76%
    11:00 +14°C° 0.4 mm 5 mps 745 mmHg 75%
    12:00 +14°C° 0.4 mm 5 mps 745 mmHg 73%
    13:00 +15°C° 0.4 mm 6 mps 745 mmHg 71%
    14:00 +15°C° 0.4 mm 5 mps 746 mmHg 72%
    15:00 +15°C° 0.4 mm 5 mps 746 mmHg 74%
    16:00 +14°C° 0.4 mm 5 mps 746 mmHg 75%
    17:00 +13°C° 0.1 mm 4 mps 746 mmHg 80%
    18:00 +11°C° 0.1 mm 3 mps 747 mmHg 84%
    19:00 +9°C° 0.1 mm 2 mps 747 mmHg 89%
    20:00 +8°C° 0 mm 2 mps 748 mmHg 90%
    21:00 +7°C° 0 mm 2 mps 749 mmHg 91%
    22:00 +6°C° 0 mm 2 mps 749 mmHg 92%
    23:00 +6°C° 0 mm 2 mps 749 mmHg 92%

    Tomorrow, 26 September, Tuesday

    Time Temperature Precipitation Wind Pressure Humidity
    00:00 +5°C° 0 mm 2 mps 750 mmHg 92%
    01:00 +4°C° 0 mm 2 mps 750 mmHg 92%
    02:00 +5°C° 0 mm 1 mps 750 mmHg 92%
    03:00 +5°C° 0 mm 1 mps 750 mmHg 92%
    04:00 +4°C° 0 mm 1 mps 750 mmHg 92%
    05:00 +4°C° 0 mm 1 mps 751 mmHg 92%
    06:00 +5°C° 0 mm 1 mps 751 mmHg 92%
    07:00 +5°C° 0 mm 1 mps 751 mmHg 92%
    08:00 +8°C° 0 mm 1 mps 751 mmHg 82%
    09:00 +10°C° 0 mm 1 mps 751 mmHg 72%
    10:00 +13°C° 0 mm 1 mps 751 mmHg 62%
    11:00 +14°C° 0 mm 1 mps 751 mmHg 58%
    12:00 +15°C° 0 mm 1 mps 750 mmHg 54%
    13:00 +18°C° 0 mm 1 mps 750 mmHg 50%
    14:00 +18°C° 0 mm 1 mps 750 mmHg 50%
    15:00 +18°C° 0 mm 1 mps 749 mmHg 51%
    16:00 +18°C° 0 mm 1 mps 749 mmHg 51%
    17:00 +15°C° 0 mm 1 mps 749 mmHg 59%
    18:00 +12°C° 0 mm 1 mps 749 mmHg 67%
    19:00 +10°C° 0 mm 1 mps 749 mmHg 74%
    20:00 +9°C° 0 mm 2 mps 749 mmHg 76%
    21:00 +8°C° 0 mm 2 mps 749 mmHg 77%
    22:00 +8°C° 0 mm 2 mps 750 mmHg 79%
    23:00 +8°C° 0 mm 3 mps 749 mmHg 77%

    Day after tomorrow, 27 September, Wednesday

    Time Temperature Precipitation Wind Pressure Humidity
    00:00 +8°C° 0 mm 3 mps 749 mmHg 75%
    01:00 +7°C° 0 mm 4 mps 748 mmHg 74%
    02:00 +7°C° 0 mm 4 mps 748 mmHg 70%
    03:00 +7°C° 0 mm 4 mps 747 mmHg 67%
    04:00 +7°C° 0 mm 4 mps 746 mmHg 64%
    05:00 +8°C° 0 mm 5 mps 746 mmHg 62%
    06:00 +8°C° 0 mm 5 mps 745 mmHg 60%
    07:00 +9°C° 0 mm 5 mps 745 mmHg 58%
    08:00 +9°C° 0.1 mm 5 mps 745 mmHg 65%
    09:00 +11°C° 0.1 mm 4 mps 745 mmHg 72%
    10:00 +11°C° 0.1 mm 4 mps 745 mmHg 79%
    11:00 +12°C° 0.2 mm 5 mps 744 mmHg 79%
    12:00 +13°C° 0.2 mm 6 mps 744 mmHg 80%
    13:00 +12°C° 0.2 mm 7 mps 743 mmHg 80%
    14:00 +14°C° 0.2 mm 6 mps 742 mmHg 82%
    15:00 +14°C° 0.2 mm 5 mps 741 mmHg 84%
    16:00 +15°C° 0.2 mm 5 mps 741 mmHg 86%
    17:00 +14°C° 0.4 mm 4 mps 741 mmHg 88%
    18:00 +14°C° 0.4 mm 4 mps 741 mmHg 91%
    19:00 +14°C° 0.4 mm 4 mps 741 mmHg 93%
    20:00 +14°C° 0.3 mm 4 mps 741 mmHg 93%
    21:00 +13°C° 0.3 mm 3 mps 741 mmHg 93%
    22:00 +13°C° 0.3 mm 3 mps 742 mmHg 92%
    23:00 +12°C° 0 mm 3 mps 742 mmHg 92%

    28 September, Thursday

    Time Temperature Precipitation Wind Pressure Humidity
    00:00 +11°C° 0 mm 3 mps 742 mmHg 92%
    01:00 +10°C° 0 mm 3 mps 742 mmHg 92%
    02:00 +9°C° 0 mm 3 mps 742 mmHg 93%
    03:00 +9°C° 0 mm 3 mps 742 mmHg 93%
    04:00 +8°C° 0 mm 3 mps 742 mmHg 93%
    05:00 +8°C° 0 mm 3 mps 743 mmHg 94%
    06:00 +9°C° 0 mm 3 mps 744 mmHg 94%
    07:00 +9°C° 0 mm 3 mps 745 mmHg 95%
    08:00 +10°C° 0 mm 3 mps 745 mmHg 89%
    09:00 +12°C° 0 mm 3 mps 746 mmHg 84%
    10:00 +14°C° 0 mm 4 mps 746 mmHg 78%
    11:00 +14°C° 0.1 mm 4 mps 746 mmHg 77%
    12:00 +14°C° 0.1 mm 4 mps 747 mmHg 75%
    13:00 +14°C° 0.1 mm 4 mps 747 mmHg 74%
    14:00 +14°C° 0.1 mm 4 mps 746 mmHg 75%
    15:00 +14°C° 0.1 mm 4 mps 746 mmHg 77%
    16:00 +14°C° 0.1 mm 4 mps 746 mmHg 79%
    17:00 +12°C° 0 mm 3 mps 747 mmHg 82%
    18:00 +11°C° 0 mm 3 mps 747 mmHg 85%
    19:00 +10°C° 0 mm 2 mps 748 mmHg 88%
    20:00 +9°C° 0 mm 3 mps 748 mmHg 88%
    21:00 +9°C° 0 mm 3 mps 749 mmHg 89%
    22:00 +8°C° 0 mm 3 mps 749 mmHg 89%
    23:00 +8°C° 0 mm 3 mps 749 mmHg 90%

    29 September, Friday

    Time Temperature Precipitation Wind Pressure Humidity
    00:00 +7°C° 0 mm 3 mps 749 mmHg 91%
    01:00 +6°C° 0 mm 2 mps 749 mmHg 92%
    02:00 +5°C° 0 mm 2 mps 749 mmHg 93%
    03:00 +4°C° 0 mm 2 mps 749 mmHg 94%
    04:00 +4°C° 0 mm 2 mps 749 mmHg 95%
    05:00 +4°C° 0 mm 2 mps 749 mmHg 94%
    06:00 +4°C° 0 mm 2 mps 750 mmHg 94%
    07:00 +5°C° 0 mm 2 mps 751 mmHg 94%
    08:00 +7°C° 0 mm 3 mps 751 mmHg 87%
    09:00 +9°C° 0 mm 3 mps 751 mmHg 81%
    10:00 +12°C° 0 mm 4 mps 751 mmHg 75%
    11:00 +12°C° 0.3 mm 5 mps 750 mmHg 76%
    12:00 +13°C° 0.3 mm 5 mps 750 mmHg 77%
    13:00 +13°C° 0.3 mm 5 mps 749 mmHg 78%
    14:00 +13°C° 0.4 mm 5 mps 748 mmHg 77%
    15:00 +14°C° 0.4 mm 5 mps 748 mmHg 77%
    16:00 +14°C° 0.4 mm 5 mps 747 mmHg 77%
    17:00 +13°C° 0.3 mm 5 mps 748 mmHg 78%
    18:00 +12°C° 0.3 mm 4 mps 748 mmHg 80%
    19:00 +11°C° 0.3 mm 4 mps 748 mmHg 82%
    20:00 +10°C° 0.1 mm 4 mps 749 mmHg 84%
    21:00 +10°C° 0.1 mm 4 mps 749 mmHg 86%
    22:00 +8°C° 0.1 mm 4 mps 749 mmHg 88%
    23:00 +7°C° 0 mm 4 mps 749 mmHg 88%

    30 September, Saturday

    Time Temperature Precipitation Wind Pressure Humidity
    00:00 +7°C° 0 mm 4 mps 750 mmHg 89%
    01:00 +6°C° 0 mm 4 mps 750 mmHg 90%
    02:00 +6°C° 0 mm 4 mps 750 mmHg 91%
    03:00 +5°C° 0 mm 4 mps 750 mmHg 91%
    04:00 +5°C° 0 mm 4 mps 751 mmHg 92%
    05:00 +5°C° 0 mm 4 mps 751 mmHg 91%
    06:00 +5°C° 0 mm 3 mps 752 mmHg 91%
    07:00 +7°C° 0 mm 3 mps 753 mmHg 91%
    08:00 +8°C° 0 mm 4 mps 754 mmHg 80%
    09:00 +11°C° 0 mm 4 mps 754 mmHg 69%
    10:00 +12°C° 0 mm 4 mps 754 mmHg 58%
    11:00 +13°C° 0 mm 5 mps 754 mmHg 57%
    12:00 +14°C° 0 mm 5 mps 754 mmHg 56%
    13:00 +15°C° 0 mm 5 mps 754 mmHg 54%
    14:00 +15°C° 0 mm 5 mps 754 mmHg 55%
    15:00 +15°C° 0 mm 5 mps 754 mmHg 56%
    16:00 +15°C° 0 mm 5 mps 754 mmHg 57%
    17:00 +13°C° 0 mm 4 mps 754 mmHg 64%
    18:00 +11°C° 0 mm 3 mps 755 mmHg 70%
    19:00 +9°C° 0 mm 2 mps 756 mmHg 77%
    20:00 +8°C° 0 mm 2 mps 756 mmHg 80%
    21:00 +7°C° 0 mm 2 mps 757 mmHg 82%
    22:00 +6°C° 0 mm 2 mps 757 mmHg 85%
    23:00 +5°C° 0 mm 2 mps 757 mmHg 86%
    Show more